User: anonymous   Login
Location: ????????
(55.6333°N, 37.7000°E)
Time: 07:22:46
(UTC+00:00)
Language:

Meteor 1-27 Rocket - Orbit

View from above orbital plane
View from above orbital plane
View from above satellite
View from above satellite

Ground track
Ground track

The orbit data is extracted from the following two-line orbital elements,

1  9904U 77024B   25199.22704811 -.00000054  00000-0 -38840-4 0  9991
2  9904  81.2643 155.9510 0051812 289.9856  69.5738 14.07264034478040
Epoch (UTC): 18 July 2025 05:26:56
Eccentricity: 0.0051812
inclination: 81.2643°
perigee height: 831 km
apogee height: 906 km
right ascension of ascending node: 155.9510°
argument of perigee: 289.9856°
revolutions per day: 14.07264034
mean anomaly at epoch: 69.5738°
orbit number at epoch: 47804

The dashed part of the orbit path shows where the satellite is in the earth's shadow,  

DLR